GFSCGP_prec_cthk_078.txt.gz
RH
73 74 74 77 92 97 98 98 90 76 71 61 71 69 83 79 70 73 75 79 86 94 98 97 90 90 90 90 87 88 91 88 85 83 85 86 82 84 79 78 79 77 78 79
79 85 80 85 91 96 98 97 97 96 87 70 81 79 80 87 84 77 79 81 86 91 93 93 98 95 90 93 92 94 94 95 93 90 87 88 86 88 83 82 83 81 81 84
92 83 90 96 98 97 95 93 93 98 89 82 82 92 93 86 92 89 85 90 95 96 93 93 95 93 95 97 97 95 98 90 89 88 87 88 89 87 80 84 86 88 86 85
91 89 94 97 99 93 90 89 94 97 95 89 78 90 96 95 90 94 95 92 93 95 95 96 96 95 91 91 90 93 91 92 94 94 93 91 90 92 93 94 88 94 93 90
89 89 86 94 98 92 88 94 94 94 87 86 88 94 94 96 93 97 91 92 91 87 92 89 87 87 89 87 84 88 88 85 84 84 93 93 95 93 95 92 91 95 98 93
86 79 78 89 92 91 92 87 90 86 86 92 99 97 95 91 85 92 90 90 90 88 88 88 85 82 79 77 75 75 73 72 76 85 90 89 92 96 89 95 93 92 93 91
80 94 88 87 95 97 89 85 95 90 93 95 98 86 92 81 78 77 88 88 91 93 90 86 84 81 78 75 71 71 66 66 66 68 74 80 81 83 85 82 78 84 86 87
94 99 95 93 94 90 87 80 74 77 92 96 82 94 93 81 83 87 91 90 88 90 91 89 85 83 79 76 72 67 64 63 62 61 65 69 73 71 72 72 71 71 78 81
98 98 98 94 90 87 79 77 71 80 83 77 88 82 76 81 87 91 93 93 93 91 88 86 80 81 77 75 70 64 62 62 60 61 61 63 62 63 64 62 61 62 60 61
88 95 90 89 84 78 76 73 76 76 79 83 81 72 76 77 81 85 91 92 93 90 82 78 76 77 75 72 69 67 65 62 59 59 61 63 63 62 63 62 62 63 62 63
80 77 78 79 82 79 69 70 69 66 70 66 72 77 70 73 75 78 80 80 80 79 77 78 73 69 67 66 64 60 57 55 54 54 54 53 53 55 57 60 59 59 58 60
73 68 72 71 70 71 69 60 56 60 67 66 60 70 73 72 73 72 70 68 69 68 66 65 61 59 58 57 55 53 51 48 46 45 43 41 39 37 36 35 36 38 41 44
62 66 70 66 61 58 58 56 53 51 51 57 55 62 65 64 63 65 62 59 58 56 57 54 50 48 47 46 45 44 42 40 39 38 36 35 33 33 34 33 33 33 34 38
64 66 65 61 64 59 56 54 51 47 50 46 45 52 58 60 61 62 59 56 54 52 50 49 48 46 44 41 40 38 37 36 35 34 32 31 30 31 31 32 31 31 32 36
58 62 61 58 60 60 60 57 52 51 48 46 47 47 51 54 55 56 54 54 54 55 55 55 54 53 51 50 48 45 43 40 38 36 34 32 32 32 32 32 33 34 34 34
54 60 54 57 50 55 59 59 58 56 54 53 49 51 52 56 59 58 58 59 61 61 61 61 59 57 56 55 54 51 48 47 46 44 40 38 36 35 35 36 37 38 39 37
52 53 55 57 50 49 48 52 56 56 55 52 51 54 56 60 59 58 60 62 63 65 68 69 68 65 64 58 53 50 47 46 46 46 45 44 44 42 40 39 40 41 42 41
50 50 54 58 50 53 47 49 50 49 50 53 53 55 54 57 58 60 64 65 65 67 69 67 62 57 52 49 48 46 45 45 45 45 46 46 47 48 47 47 45 45 46 47
48 46 51 53 50 45 46 46 46 45 44 45 46 49 51 54 55 57 60 59 58 58 54 51 49 46 43 41 38 37 37 38 40 42 44 46 48 48 49 50 52 52 49 50
48 45 44 44 44 38 43 45 44 44 40 41 44 46 48 50 51 48 52 48 46 44 41 36 32 28 27 23 23 23 24 26 29 33 36 39 43 47 52 52 51 52 59 59
44 44 44 44 43 39 39 40 41 39 34 36 39 40 42 42 42 40 36 34 34 33 31 29 27 26 24 23 23 23 23 24 23 23 24 30 36 44 51 56 56 57 59 59
42 43 43 44 44 37 34 36 35 33 33 34 36 38 39 39 38 36 35 35 32 28 25 24 24 24 24 25 26 27 27 26 26 25 24 25 27 32 36 44 60 64 64 68
38 36 35 35 32 32 34 34 34 34 34 36 36 37 38 38 37 34 32 27 25 25 26 27 27 27 27 28 29 30 33 34 34 33 31 28 27 27 32 41 45 55 73 71
37 37 37 36 34 34 35 35 35 36 37 37 38 37 38 39 35 31 27 26 27 29 29 29 30 32 34 36 36 37 40 42 41 40 39 39 37 35 32 30 40 49 58 73
37 39 38 36 33 35 35 36 37 37 38 38 39 39 37 35 31 29 31 33 32 31 31 32 35 36 36 39 43 44 40 37 35 34 34 34 34 34 35 36 35 44 51 64
34 34 35 32 33 34 34 35 36 38 40 40 39 37 35 33 33 35 34 33 33 34 35 36 38 40 43 41 36 34 32 30 28 26 25 25 25 25 27 29 30 35 45 54

GFSCGP_prec_cthk_084.txt.gz
RH
64 76 72 67 75 73 77 77 78 79 79 92 87 67 59 84 64 64 54 60 55 58 61 67 70 71 82 96 89 90 90 85 85 85 92 89 79 74 81 80 83 71 68 69
72 82 76 77 87 87 85 83 83 79 84 88 94 67 62 66 71 63 62 59 57 81 76 78 74 70 81 96 92 96 91 89 89 97 94 87 86 84 79 80 76 80 77 74
84 74 84 92 95 95 89 85 93 96 95 90 81 71 65 66 75 62 60 76 77 86 88 80 77 82 88 99 98 99 97 96 94 98 96 97 84 91 86 90 87 87 87 85
91 85 85 91 97 95 93 85 92 93 79 80 75 81 75 74 59 58 73 78 78 88 93 90 84 85 98 98 95 98 99 99 98 97 98 98 94 91 96 96 93 96 92 93
89 90 93 94 90 97 95 91 94 91 91 92 79 95 77 70 66 74 87 85 87 90 92 90 89 95 95 94 96 96 98 98 96 94 95 94 93 95 96 90 91 94 94 95
88 86 94 86 82 93 94 94 95 96 93 84 80 89 91 90 88 85 84 82 88 92 95 91 89 90 97 98 98 97 98 96 92 89 94 95 93 93 90 88 92 91 90 92
83 94 93 86 88 88 94 98 98 98 98 96 92 83 93 90 94 91 95 93 97 99 96 95 93 95 97 96 94 91 93 96 92 92 95 96 93 96 89 88 91 91 84 85
97 96 93 92 93 98 94 97 98 97 97 97 89 93 95 95 98 98 96 94 95 97 98 96 94 93 93 91 88 88 92 89 89 87 89 89 89 88 87 88 88 88 84 86
97 98 94 91 87 87 85 96 91 99 84 93 98 98 98 98 97 97 98 98 98 99 96 93 94 93 93 89 86 86 83 81 81 79 78 78 80 80 80 83 84 84 84 84
94 98 92 88 90 85 84 77 86 92 97 96 92 94 98 99 98 97 95 97 97 97 96 95 94 93 92 89 87 84 81 76 74 73 72 71 71 72 71 72 74 77 75 77
88 94 85 84 80 82 76 73 68 71 75 82 86 93 87 96 96 96 95 95 91 95 92 90 87 84 82 80 80 79 75 73 71 68 66 64 64 66 65 65 65 65 65 64
78 82 87 77 74 73 72 67 63 74 70 71 76 85 81 85 87 88 90 91 90 87 87 85 82 80 76 74 72 70 65 59 55 51 49 48 46 45 44 44 44 44 41 41
71 71 86 78 74 69 65 60 59 58 63 63 72 79 72 71 72 74 78 78 77 76 77 74 72 69 66 65 59 55 51 46 44 42 41 39 36 36 34 33 33 33 31 35
63 63 68 76 71 64 63 57 54 57 67 59 61 65 66 64 62 60 60 60 63 62 60 57 55 53 52 51 51 50 47 44 41 40 39 37 35 35 32 30 29 28 28 29
51 56 56 51 52 53 52 51 50 49 45 53 58 59 60 60 59 57 55 56 55 55 53 52 53 52 52 52 50 49 49 48 45 43 40 40 39 39 38 37 37 35 34 33
47 52 50 47 45 46 46 46 46 47 44 43 48 51 50 53 54 55 55 55 53 53 53 55 53 52 52 51 50 49 47 42 43 44 42 41 39 39 38 39 40 40 40 40
44 50 56 55 44 46 51 45 46 46 44 46 52 47 48 50 51 51 50 50 52 53 55 53 51 52 53 49 43 38 35 34 31 30 29 29 28 28 30 31 34 36 36 36
39 42 52 55 51 56 39 39 41 42 42 43 44 43 45 45 46 47 49 50 49 50 50 49 48 50 44 36 29 25 21 19 17 17 16 16 17 16 17 17 19 22 29 35
36 37 44 53 44 34 36 36 38 39 39 36 38 39 41 42 44 45 43 43 43 45 45 44 39 32 25 21 19 18 19 18 17 17 17 16 16 16 16 16 16 18 20 24
35 34 40 39 40 34 35 33 31 31 38 32 32 33 35 37 41 41 41 43 42 37 33 29 27 26 24 24 23 23 22 20 19 19 20 20 21 21 20 19 19 19 18 21
35 35 40 38 40 34 32 30 30 34 39 30 30 31 31 33 35 36 36 35 34 33 33 31 27 24 23 23 23 24 24 25 25 26 27 29 30 30 29 27 26 25 24 22
34 39 37 36 38 41 30 28 29 33 30 30 31 31 33 34 34 35 35 34 34 33 31 28 26 26 26 27 27 27 28 30 33 34 33 33 33 32 31 31 31 30 30 29
32 31 36 33 37 31 27 30 30 30 30 30 30 31 33 34 35 35 35 35 33 31 30 29 28 27 27 28 31 33 34 35 35 33 31 30 29 28 27 27 27 29 31 30
30 29 33 32 30 29 29 30 31 31 31 32 32 33 34 35 35 35 35 34 33 32 31 30 29 29 30 32 35 36 34 33 31 28 26 24 23 22 22 22 22 22 23 25
31 33 32 31 29 30 29 30 30 31 32 32 33 34 36 35 35 35 34 33 31 31 30 30 32 35 35 34 31 29 28 28 29 29 28 25 22 20 19 18 17 17 16 19
27 28 32 31 30 30 30 30 30 31 32 33 35 36 35 35 34 33 31 30 30 30 32 35 34 31 30 29 27 27 29 30 30 27 24 22 21 19 18 16 14 14 15 16

GFSCGP_prec_cthk_087.txt.gz
RH
53 60 62 60 62 64 73 77 74 62 67 78 80 75 59 50 62 58 45 42 40 42 46 49 50 57 65 74 76 85 93 94 87 86 83 83 86 96 98 96 82 58 54 47
59 61 59 68 72 77 85 86 80 74 75 89 91 81 67 66 85 78 69 59 50 51 60 59 58 53 61 72 80 89 91 94 93 87 86 82 86 92 98 98 97 91 71 63
66 58 60 73 80 84 84 87 86 83 78 89 91 88 66 67 79 80 80 74 58 64 60 75 74 64 64 69 80 86 91 99 95 94 95 92 88 94 95 95 94 98 94 85
69 66 70 77 83 89 93 95 91 81 80 79 75 76 61 62 71 86 79 75 67 76 84 91 97 84 72 74 83 87 99 99 99 97 97 98 96 91 92 95 94 95 96 94
68 71 75 82 93 94 97 95 90 87 85 88 77 92 71 66 71 74 67 72 76 83 83 94 95 87 81 77 86 93 97 98 99 98 99 98 97 98 94 93 97 96 96 96
75 79 79 83 86 88 92 96 97 93 94 90 77 93 82 73 68 63 66 79 85 86 88 93 97 93 89 89 87 98 97 96 98 98 94 97 99 97 97 96 96 93 93 93
81 85 83 83 86 88 96 98 98 98 96 98 88 88 90 87 85 80 86 89 88 90 98 98 94 97 96 97 99 98 98 97 96 95 97 97 96 93 91 88 90 90 90 85
85 85 88 91 93 96 98 98 98 97 97 97 89 94 94 92 89 90 98 97 98 98 99 97 98 98 98 96 95 94 94 93 96 95 96 96 95 96 94 93 92 90 89 88
89 92 91 92 92 93 94 98 95 98 88 96 97 98 99 98 96 95 99 97 98 99 99 98 98 98 96 93 92 90 88 86 87 86 86 89 94 95 93 92 92 95 95 92
91 96 87 88 86 82 87 81 88 96 97 96 98 97 98 98 98 98 98 98 97 98 98 98 96 96 94 91 89 86 82 82 82 82 82 79 78 81 86 90 93 93 91 88
92 96 85 83 79 81 79 79 76 75 80 86 90 97 97 98 98 98 97 98 98 97 95 94 92 89 86 82 80 79 76 76 75 75 74 73 71 73 72 72 74 73 73 73
83 84 90 76 72 70 71 69 68 78 74 78 82 93 91 96 95 94 92 91 90 92 90 82 80 78 74 73 73 72 70 69 65 60 56 52 51 52 51 50 49 50 50 50
76 78 88 80 71 63 64 59 60 61 67 73 79 90 83 83 88 93 91 88 87 82 76 73 71 68 65 64 63 61 58 56 54 48 46 43 42 41 38 35 34 36 38 38
64 65 69 76 72 68 64 59 55 52 64 66 66 71 70 66 66 67 68 71 72 71 69 64 60 55 52 49 49 49 48 47 45 44 43 41 39 36 35 34 34 33 32 30
51 55 55 52 52 51 53 55 51 51 48 57 64 64 64 63 61 57 57 57 56 55 53 52 51 50 50 50 50 49 46 44 43 41 40 39 36 35 36 37 39 38 39 38
46 49 51 50 45 43 43 47 46 45 45 47 49 51 52 52 53 53 52 49 49 50 52 52 52 52 50 49 46 45 39 35 31 28 26 25 24 24 25 28 29 31 32 33
43 49 57 51 45 45 46 44 45 46 46 46 49 44 46 49 48 47 47 48 47 44 46 46 47 46 44 42 40 31 25 23 20 18 17 16 16 15 15 15 16 17 20 24
38 43 51 52 50 48 36 35 38 40 42 41 42 44 44 45 45 45 45 44 45 46 45 46 45 41 37 34 29 22 19 19 18 18 17 17 17 17 17 17 16 16 17 17
35 38 41 47 45 34 36 34 35 35 38 35 38 40 42 43 44 45 44 43 45 47 48 45 39 35 32 29 26 22 20 20 20 21 21 22 22 22 22 21 20 19 18 18
33 33 38 39 38 34 34 32 31 31 39 32 34 35 36 36 43 44 44 44 44 42 39 37 35 32 28 25 22 22 22 23 24 25 27 28 28 27 25 24 24 24 25 25
34 34 38 40 39 34 32 30 29 33 32 30 31 32 32 35 36 36 37 37 36 36 35 34 30 27 26 26 26 26 27 28 30 30 31 31 28 27 27 28 29 29 29 29
33 37 40 39 40 34 30 29 30 29 28 28 29 31 31 32 33 35 35 35 35 33 31 29 28 27 27 27 28 28 28 28 27 28 29 31 32 32 33 34 34 34 33 31
30 29 35 34 33 30 28 27 27 27 28 29 30 31 32 33 34 36 36 36 34 33 31 30 28 27 27 28 28 28 28 29 31 32 33 30 28 26 26 27 27 28 29 30
29 29 30 28 25 26 26 26 28 29 30 31 32 33 34 35 36 36 35 34 33 31 29 28 27 27 27 27 26 25 26 28 29 30 30 30 30 28 25 23 22 22 22 22
28 30 30 29 26 27 27 27 28 29 30 31 31 32 33 34 33 33 33 31 28 27 27 27 27 25 23 22 22 23 25 28 28 27 24 24 24 24 23 22 22 21 20 21
26 26 30 29 23 25 27 29 28 29 30 31 32 33 33 33 32 31 29 27 27 27 27 23 20 19 19 19 20 21 20 20 23 26 28 29 30 29 28 28 26 28 27 27

GFSCGP_prec_cthk_093.txt.gz
RH
53 52 51 48 50 49 51 59 64 62 61 64 65 58 58 56 56 58 44 49 39 34 21 23 37 50 61 61 57 56 46 37 40 47 62 60 65 67 67 72 74 80 85 93
53 54 48 48 52 60 67 73 72 71 74 73 66 64 66 64 65 56 54 54 52 47 38 29 35 53 58 58 61 63 52 41 47 61 62 64 70 72 76 85 82 91 96 98
55 48 49 54 62 70 73 77 75 75 71 69 69 68 73 70 68 66 70 75 67 55 50 49 43 49 48 47 51 52 46 50 61 67 67 65 76 80 83 92 93 95 96 95
59 54 58 64 67 72 78 71 76 81 84 82 76 75 71 71 74 86 87 91 79 78 63 54 50 47 44 50 58 55 58 61 66 72 68 72 76 82 85 86 98 96 96 97
61 64 67 70 69 72 78 76 84 91 94 86 88 86 76 72 77 86 81 92 85 88 79 73 65 60 60 65 64 73 76 75 72 70 74 78 82 81 85 88 99 99 98 96
68 68 71 72 73 74 78 85 88 95 99 95 86 82 73 75 73 80 84 84 80 79 76 82 82 85 80 81 82 85 87 88 86 83 82 97 89 97 94 96 99 99 98 96
70 72 73 76 77 82 89 93 91 92 98 93 95 87 75 75 74 74 71 76 78 81 85 86 90 92 90 87 86 88 90 90 92 90 96 97 98 98 99 99 99 99 99 99
81 75 79 79 82 88 92 97 97 95 98 97 96 97 89 83 78 78 75 78 81 90 90 94 97 99 95 96 99 99 94 91 89 91 92 93 92 97 97 96 98 98 98 97
84 82 77 81 88 93 97 98 96 98 92 97 96 98 95 94 90 90 92 95 98 98 98 98 98 97 98 98 96 96 95 93 92 93 95 96 98 95 94 97 96 98 99 98
84 89 79 81 89 93 97 96 98 98 98 97 95 97 97 98 97 97 98 98 98 98 98 98 98 98 96 93 91 89 88 88 88 86 86 87 87 85 93 97 97 96 96 96
87 88 76 79 82 82 88 92 94 91 97 97 93 95 97 98 98 98 98 98 98 98 98 99 96 91 87 83 79 76 71 71 70 68 68 69 69 67 67 73 82 87 89 90
82 81 82 70 66 67 67 70 75 83 79 86 85 94 95 98 96 96 98 99 98 98 97 95 92 87 79 75 74 70 68 67 64 62 60 56 54 55 57 56 54 53 55 60
72 75 80 64 57 56 59 61 64 69 73 78 82 84 88 91 94 94 96 94 90 83 81 79 77 74 71 68 63 60 57 56 52 50 48 46 44 42 41 41 42 45 48 51
60 63 64 65 60 57 53 52 55 54 63 62 64 70 74 78 83 82 79 77 75 75 72 71 67 61 55 50 47 44 41 39 37 36 33 31 29 28 28 28 27 28 30 31
48 50 52 48 47 45 42 46 49 52 50 49 53 55 54 55 57 57 55 54 55 54 54 52 50 49 46 45 42 39 36 32 29 26 23 21 20 19 18 18 19 20 21 21
44 44 47 46 42 43 41 39 43 44 43 45 46 45 44 45 46 47 47 47 46 46 46 45 44 43 43 40 37 33 28 24 20 18 17 16 15 15 15 15 15 15 16 16
40 44 48 42 41 41 36 32 38 38 39 38 40 38 41 42 43 42 42 42 43 44 44 44 44 44 40 35 30 26 22 20 18 18 17 16 16 16 15 16 16 16 16 16
36 40 44 45 36 39 25 30 32 34 34 34 35 36 39 41 42 42 42 43 44 44 44 43 43 39 34 29 25 22 20 19 18 18 18 18 18 18 19 19 18 19 19 19
32 36 39 42 42 27 25 27 31 33 30 31 33 35 37 38 38 40 41 41 41 41 42 41 36 33 28 25 23 22 21 21 20 19 19 19 19 19 19 19 19 19 20 21
31 34 37 40 36 27 24 28 28 28 28 29 31 33 33 33 37 36 35 35 37 36 37 34 32 29 27 26 25 25 24 23 22 20 20 19 19 19 18 18 17 17 17 17
31 35 38 41 43 31 26 29 28 27 21 26 27 29 31 34 34 32 33 34 36 36 35 33 32 31 29 27 26 24 23 22 21 20 19 18 17 16 15 14 13 13 12 11
29 35 39 40 41 31 28 30 28 23 25 25 26 28 29 30 31 32 34 34 34 35 35 34 33 30 27 25 24 23 22 20 19 16 13 12 12 12 13 13 13 14 15 15
34 29 29 33 28 23 27 25 25 25 25 26 26 28 29 30 31 33 35 36 37 37 36 34 30 27 25 24 23 20 17 17 15 13 12 12 12 12 12 12 12 13 15 16
28 28 31 28 19 22 23 24 25 26 26 26 27 28 30 31 32 34 36 37 36 36 34 30 27 26 24 20 17 18 18 18 17 16 16 15 15 14 14 15 18 19 21 22
28 31 31 30 25 24 23 23 25 27 29 30 31 31 33 34 35 36 37 36 35 32 28 26 25 22 20 21 20 19 19 18 17 17 16 15 15 15 15 18 22 25 28 31
30 28 30 28 22 24 23 23 26 29 31 33 34 35 36 36 35 36 36 34 31 26 26 24 20 21 23 24 23 21 20 20 19 17 15 15 16 16 21 25 27 33 37 38

GFSCGP_prec_cthk_096.txt.gz
RH
57 53 51 48 47 46 50 54 56 52 53 55 56 48 40 43 48 50 50 45 45 43 41 31 22 15 27 44 50 50 53 54 51 43 40 39 36 35 46 50 52 55 57 59
56 54 48 48 49 52 54 60 58 58 58 59 59 53 52 56 57 63 67 62 59 61 55 45 26 19 31 50 59 57 55 55 52 45 46 46 40 41 51 55 58 60 63 67
52 49 49 49 53 57 58 63 65 68 66 68 70 60 62 61 74 76 71 75 77 76 77 64 50 41 38 54 65 63 65 57 53 50 51 47 49 52 54 56 63 67 69 76
56 51 52 55 58 58 66 64 68 76 83 85 82 81 70 72 73 78 87 89 93 84 88 82 83 64 48 58 63 67 62 55 46 48 49 51 57 58 60 59 60 69 74 82
56 57 59 62 60 62 64 67 74 79 86 90 94 96 70 74 71 79 83 90 92 97 95 92 80 78 64 61 62 58 50 50 55 54 55 58 65 71 65 59 66 74 76 86
61 61 64 61 65 65 70 78 80 82 87 94 86 95 84 77 81 80 84 88 92 88 89 83 84 74 65 59 56 55 64 66 71 68 67 71 77 76 76 89 90 87 86 92
64 67 64 67 73 73 82 90 88 86 92 91 94 95 80 80 78 81 80 79 82 84 86 88 92 88 84 81 79 83 81 86 87 97 95 91 85 89 90 93 94 92 96 97
73 71 75 77 80 87 93 96 96 93 95 94 98 97 93 90 84 82 78 76 81 87 92 92 95 98 97 93 92 91 89 88 90 87 92 88 88 91 90 93 96 94 97 95
80 82 78 83 86 90 95 98 97 97 97 97 94 96 96 97 95 90 92 91 94 98 98 98 99 99 98 99 99 98 98 97 95 93 91 88 94 95 93 96 96 96 96 97
86 91 80 84 88 88 94 95 97 97 97 96 96 96 98 98 98 98 98 98 98 98 98 98 98 97 96 95 94 94 91 88 85 81 81 83 81 84 88 91 93 97 96 97
89 89 80 80 81 77 85 86 93 96 98 97 95 96 97 98 98 98 98 98 98 98 98 97 97 94 91 88 83 80 81 80 77 75 72 69 70 71 67 63 65 70 78 84
85 84 82 67 62 63 65 72 76 86 83 88 88 93 96 97 98 98 96 97 98 98 97 96 92 87 83 81 78 75 72 71 67 64 62 59 58 57 56 56 57 58 61 60
75 74 76 58 53 52 58 59 63 67 71 76 83 84 90 93 93 95 96 95 93 90 87 86 84 80 74 66 60 57 54 50 46 42 39 36 35 33 33 32 33 33 34 35
60 59 58 58 52 52 49 49 55 56 63 60 63 68 71 78 84 83 80 78 75 75 74 71 66 62 57 52 48 44 41 38 34 31 27 24 22 21 19 18 18 18 18 18
49 47 48 44 45 43 42 41 47 49 47 45 48 52 52 55 57 59 57 55 54 54 55 54 54 52 49 45 41 36 31 27 23 20 18 16 16 15 14 14 14 13 13 13
44 43 44 45 37 39 40 36 38 41 43 43 45 44 43 44 45 46 47 47 48 48 48 47 47 47 46 42 36 30 24 22 20 18 18 17 17 16 16 16 16 16 16 15
40 42 45 41 34 36 33 29 33 35 36 36 38 35 39 41 42 42 42 43 45 46 46 47 47 45 40 37 32 27 24 22 20 19 19 19 18 18 18 19 19 19 19 18
37 40 44 44 33 31 20 26 29 31 31 32 33 34 36 38 38 38 40 41 43 43 44 45 43 41 36 31 27 25 24 22 21 21 20 20 20 19 19 18 17 17 16 15
34 37 39 41 41 24 22 24 28 30 26 28 30 33 35 37 37 37 38 39 40 41 41 41 40 35 31 28 26 25 23 22 21 21 21 20 19 18 16 14 13 12 10 9
33 34 37 39 35 24 20 26 27 25 24 24 28 32 34 34 37 36 33 34 35 37 37 36 33 29 27 27 26 24 23 22 21 20 19 18 16 14 12 12 11 10 10 10
31 35 37 40 41 30 22 27 27 23 18 23 24 26 28 30 29 28 29 30 32 33 32 31 30 30 30 28 25 24 23 22 20 18 16 14 13 13 14 14 13 13 12 11
28 32 38 40 42 31 24 28 26 21 22 22 22 24 25 26 28 29 29 31 32 33 33 33 33 33 30 27 25 25 23 20 18 18 18 17 17 17 17 17 16 14 13 13
33 27 26 30 26 20 23 23 22 23 23 24 24 25 26 27 28 29 31 32 34 34 34 34 33 30 26 25 24 20 18 18 18 20 22 24 23 22 20 19 17 16 14 14
28 29 32 29 20 21 21 22 23 25 25 26 27 28 30 31 33 35 36 37 37 37 36 34 30 26 25 23 20 19 19 20 21 24 26 29 26 23 19 18 16 15 15 18
29 33 32 33 26 25 24 23 23 26 28 29 31 32 34 35 37 39 40 40 41 40 38 33 29 27 24 22 22 22 23 25 30 33 34 33 28 24 21 18 17 17 20 23
29 29 31 29 24 24 23 24 24 26 27 31 33 34 36 39 41 44 45 46 46 45 42 43 42 37 34 32 29 28 33 40 42 40 37 32 29 25 21 19 17 19 21 24

GFSCGP_prec_cthk_102.txt.gz
RH
52 47 47 42 38 38 42 47 51 45 43 43 40 37 36 38 39 42 43 43 43 43 44 43 40 40 40 35 28 23 16 27 36 40 44 44 44 45 45 46 51 53 48 44
56 57 49 48 50 50 51 51 48 42 43 43 38 36 39 41 48 49 51 50 51 53 54 52 51 51 54 50 37 30 23 30 43 46 49 52 51 46 44 43 41 44 45 42
59 60 58 54 55 53 48 44 44 49 45 45 46 39 43 48 56 58 60 56 57 63 64 67 67 72 69 53 44 33 33 49 55 58 60 59 53 45 43 42 39 39 44 47
63 60 55 51 54 47 46 41 43 50 56 59 57 59 51 54 59 62 62 62 63 71 75 82 86 91 79 55 53 53 65 66 73 75 72 66 51 55 54 45 44 44 50 53
63 57 55 52 47 45 45 45 51 56 66 70 62 76 56 59 62 69 65 77 78 78 81 83 85 92 92 80 73 76 79 85 87 84 71 68 61 58 51 45 49 57 60 59
54 53 54 50 48 47 51 58 66 68 72 76 63 74 67 64 78 85 79 77 78 79 77 81 89 93 89 86 80 88 90 88 92 87 79 67 61 57 55 61 67 71 70 71
58 59 54 53 55 60 66 75 75 75 79 74 68 76 68 77 88 90 88 84 74 75 80 85 87 87 90 84 78 76 81 86 81 72 65 63 68 65 74 78 79 81 75 79
62 65 56 63 66 73 80 82 83 80 73 72 75 80 77 88 88 88 92 92 88 82 85 94 98 98 99 96 85 72 67 65 63 61 70 77 95 97 99 97 98 91 90 92
65 74 69 74 73 77 83 84 83 87 75 82 70 80 89 89 91 92 94 94 95 95 93 94 98 98 98 98 98 95 92 92 87 80 83 92 93 88 89 89 86 92 91 92
73 82 72 73 72 72 73 76 85 88 84 76 68 79 87 91 93 94 94 93 95 94 94 95 97 97 98 98 98 97 96 92 93 92 85 80 87 91 86 82 79 75 74 83
77 72 67 68 72 71 77 77 76 78 82 80 74 72 86 92 94 96 95 95 95 94 95 97 97 96 95 94 90 90 87 84 76 75 73 69 67 72 70 68 64 64 66 65
69 65 68 59 58 57 56 55 55 62 68 66 71 69 79 86 87 89 89 91 92 94 94 95 94 91 85 81 76 74 71 65 62 57 54 54 49 46 45 47 41 40 39 44
60 57 56 44 43 44 43 45 46 50 53 53 54 49 63 74 78 80 82 84 86 87 85 77 72 66 60 54 49 45 41 36 32 29 26 24 22 19 18 17 16 15 15 14
49 46 42 37 34 37 39 38 39 44 49 41 39 39 47 53 55 57 56 57 57 55 54 53 52 52 48 44 39 34 29 24 20 18 17 17 17 17 17 17 17 17 16 16
44 44 40 35 34 36 36 35 35 40 37 38 30 34 34 39 41 43 45 46 43 43 43 43 43 43 41 37 33 29 26 23 21 20 19 19 18 17 17 17 17 16 16 15
41 43 38 38 30 33 34 31 31 31 32 35 32 31 28 33 37 38 40 39 38 39 40 41 42 42 42 38 34 29 26 24 23 22 21 20 19 19 19 18 16 14 13 13
36 38 38 34 27 27 25 21 24 26 27 28 31 25 28 32 35 36 38 39 38 39 40 41 41 40 38 36 33 29 28 27 25 23 22 21 20 19 16 15 14 14 14 13
34 35 38 39 29 29 17 22 23 24 25 26 26 27 28 30 32 34 35 35 36 36 37 37 37 38 39 38 34 32 31 29 27 25 23 22 18 17 16 16 16 16 16 16
35 35 36 36 30 18 16 19 22 23 19 20 23 25 27 29 32 31 31 32 34 35 37 38 38 40 40 37 34 34 33 30 28 25 22 18 18 18 17 16 16 16 18 19
36 38 38 37 33 17 14 21 23 24 21 18 20 21 25 29 31 27 29 31 33 35 36 37 39 41 40 39 40 41 39 37 35 33 32 31 31 30 28 28 29 30 31 32
34 36 38 38 34 22 18 22 25 23 14 18 20 22 26 28 29 30 30 32 33 36 38 41 44 45 46 48 48 44 41 37 33 30 29 29 28 28 29 32 36 38 38 37
26 29 32 36 40 34 24 29 25 21 22 24 27 28 30 31 32 33 34 35 37 40 45 51 55 58 52 48 42 36 34 35 35 34 33 32 33 34 38 40 41 40 40 41
28 23 23 25 21 18 20 20 21 21 22 23 24 25 28 31 33 36 38 41 49 58 58 60 55 45 41 38 39 40 38 33 30 30 32 35 39 41 44 44 43 42 40 40
23 22 23 21 15 16 17 18 19 21 22 23 25 26 27 29 30 32 35 37 40 43 46 46 43 42 42 40 40 37 33 31 32 35 39 41 42 46 45 41 40 40 40 40
19 21 20 21 17 18 20 20 20 20 20 21 23 26 27 28 29 31 34 36 37 39 39 38 39 38 38 41 35 30 30 31 36 39 40 44 47 44 42 39 36 33 29 31
25 23 25 22 20 21 21 21 22 22 23 23 24 24 25 28 30 33 34 35 37 37 37 36 32 33 38 34 31 34 36 40 41 40 45 45 44 42 38 36 28 26 28 31

GFSCGP_prec_cthk_108.txt.gz
RH
48 44 45 36 36 34 36 32 34 33 33 36 36 36 33 33 34 37 36 38 39 38 37 37 37 38 37 37 36 35 35 35 40 37 29 25 22 28 41 62 72 70 73 69
59 60 48 42 38 37 36 38 43 44 44 45 44 42 37 34 36 36 37 40 42 44 48 46 44 41 44 45 45 44 41 40 45 48 42 33 31 30 34 50 65 73 72 70
66 60 55 52 52 49 48 49 51 54 49 47 48 42 36 35 36 39 41 44 51 53 53 51 48 48 49 52 53 54 57 57 55 49 57 56 45 47 52 53 59 82 80 74
63 58 55 52 54 50 54 50 49 52 55 58 43 55 39 39 41 43 48 53 58 59 57 53 50 49 51 54 61 65 71 75 65 54 61 69 70 71 79 93 89 94 88 77
67 57 57 57 57 53 63 55 53 52 47 50 46 58 47 44 48 51 57 63 63 59 59 52 53 57 63 67 70 71 71 77 85 81 81 77 82 87 92 96 91 93 88 84
64 61 61 65 59 57 53 49 49 48 52 60 54 59 53 54 56 60 64 67 66 62 61 63 60 65 72 79 82 78 72 80 87 89 93 95 96 92 91 85 89 85 82 76
71 67 63 60 56 51 48 54 62 68 70 69 57 60 57 57 63 67 70 72 72 68 68 71 72 74 77 84 86 86 77 75 80 88 92 95 95 93 88 92 94 88 83 79
64 67 56 53 53 54 59 64 74 67 70 69 60 69 60 65 68 72 73 72 69 69 70 72 76 79 83 84 84 86 87 83 79 82 81 81 82 85 88 85 80 75 70 64
64 66 54 55 57 59 69 76 70 74 64 74 68 65 68 69 69 70 70 71 71 70 73 76 79 81 82 86 87 85 88 95 96 93 83 71 68 67 64 68 69 77 88 87
57 63 58 61 61 62 68 67 80 81 83 79 70 67 71 68 67 69 70 69 70 71 74 77 80 83 83 82 81 81 81 79 77 80 84 85 85 83 85 84 86 86 79 73
61 64 64 64 65 70 70 67 67 66 68 71 70 68 56 52 57 60 62 63 65 66 70 69 66 66 65 64 55 57 61 51 40 51 57 59 62 61 58 61 63 63 63 63
60 64 70 63 56 52 52 51 53 60 65 60 55 50 47 40 40 43 48 49 52 52 51 52 47 43 41 39 35 31 28 25 22 21 20 19 19 23 32 24 19 19 17 17
54 55 58 47 43 41 40 38 40 41 47 51 57 44 40 37 35 35 36 38 40 41 41 40 40 39 40 39 35 32 30 28 25 24 23 22 21 21 20 19 17 16 15 14
40 40 42 50 39 34 36 35 36 39 52 42 39 31 38 35 34 32 33 34 36 37 38 39 40 40 40 40 38 34 31 29 26 25 24 23 22 21 19 18 17 15 14 14
34 37 35 33 29 28 28 28 32 36 33 39 25 28 25 30 30 31 31 34 36 37 38 38 39 39 40 40 40 38 34 32 29 29 28 27 25 23 21 19 17 17 17 16
33 36 31 34 25 26 28 26 25 26 30 31 29 27 23 20 24 29 30 32 34 35 36 37 37 39 40 39 39 39 37 35 33 33 34 34 34 33 31 29 29 29 29 29
30 35 37 38 30 30 29 20 21 22 22 24 30 22 24 25 26 28 30 31 32 34 36 36 36 37 37 39 41 42 43 42 43 45 45 40 34 30 29 29 29 29 30 31
33 35 39 46 36 43 21 18 18 20 19 22 22 21 25 25 25 27 30 31 32 34 35 36 37 40 43 46 50 53 55 51 43 39 37 34 31 25 23 23 24 25 27 29
34 37 44 52 43 28 19 21 22 23 20 18 20 22 24 28 28 27 28 30 34 37 38 40 45 51 55 57 54 51 45 40 39 35 31 30 27 25 23 26 30 32 33 33
37 39 46 43 43 34 20 19 19 20 24 19 18 19 20 25 31 26 24 27 31 33 35 37 39 42 42 42 44 43 38 38 36 33 34 29 24 23 27 30 32 32 33 34
40 42 46 47 46 32 20 19 19 18 18 15 15 15 17 22 22 22 25 27 28 28 30 33 36 38 36 38 40 38 37 37 33 34 29 25 26 29 34 35 35 35 32 31
30 36 40 40 41 39 19 19 17 14 15 16 16 17 18 20 21 22 23 23 24 26 27 30 31 32 34 38 39 38 37 34 35 30 27 30 33 36 35 36 33 31 30 30
23 18 22 24 24 16 16 14 15 15 16 18 19 18 18 20 21 22 23 24 25 26 27 29 31 33 36 38 38 37 34 36 32 28 31 35 36 36 36 34 32 31 32 33
20 18 22 20 14 15 16 17 17 19 20 20 20 20 20 20 21 23 26 26 27 28 29 30 32 34 37 37 37 35 36 34 29 33 36 36 36 37 34 33 33 32 33 35
21 21 24 24 20 19 19 19 20 20 20 20 21 20 20 22 22 25 27 29 30 30 31 33 36 37 37 36 34 34 36 31 33 37 37 36 38 35 33 32 33 34 34 35
21 19 24 21 19 20 19 20 21 21 21 22 22 22 22 24 25 27 28 30 31 32 34 36 37 37 36 35 33 37 35 35 38 38 38 39 37 34 33 34 33 32 33 35

GFSCGP_prec_cthk_111.txt.gz
RH
43 39 38 32 30 31 31 31 32 30 32 33 32 33 30 30 33 37 38 38 37 35 35 34 33 34 34 33 31 32 34 34 32 29 31 32 32 30 24 25 31 41 61 72
55 48 38 34 33 32 32 33 38 39 38 37 38 41 39 39 39 38 37 36 35 36 38 39 39 38 40 38 36 36 38 39 40 39 40 42 43 41 40 33 37 49 70 73
60 51 44 40 39 38 38 39 45 49 46 47 47 45 40 38 35 34 35 37 40 43 45 47 47 43 42 39 39 43 47 48 49 51 49 46 46 48 57 52 61 60 67 79
65 58 52 52 50 48 50 50 51 52 54 59 49 52 39 34 36 40 43 46 49 52 52 51 47 44 44 48 53 59 59 54 57 62 62 52 52 68 68 58 69 83 81 85
68 58 55 56 55 52 58 53 53 54 56 56 47 55 40 40 43 48 53 55 58 58 57 53 51 50 54 55 59 65 66 63 60 68 72 72 73 77 75 92 94 98 94 95
60 57 58 60 57 56 56 57 57 52 49 57 50 55 50 49 47 54 59 62 63 62 61 58 57 59 60 60 63 69 70 69 67 72 70 76 85 87 94 96 96 94 97 98
66 64 61 62 62 59 54 52 58 60 67 62 54 60 51 50 57 59 62 64 64 62 59 59 61 63 64 68 68 71 72 73 75 73 69 72 81 83 86 88 87 85 81 80
73 69 66 62 57 56 52 52 62 66 71 67 57 61 52 59 62 62 61 61 62 62 62 61 63 67 69 70 71 71 75 79 83 82 83 74 69 70 70 73 77 76 72 71
65 66 56 55 50 51 61 64 64 71 65 71 64 59 61 61 61 60 60 61 60 60 62 62 64 67 68 71 72 70 66 62 69 83 84 82 78 79 74 71 68 60 69 71
53 61 57 55 56 57 64 63 71 76 76 69 67 65 65 56 50 54 55 55 54 54 56 57 54 54 55 53 46 40 39 35 30 29 36 47 59 60 64 68 72 77 73 73
56 57 63 63 61 61 64 64 63 60 65 68 70 58 52 41 35 35 38 39 39 41 41 42 43 42 40 34 29 26 25 23 22 21 20 20 20 20 25 33 24 26 31 33
59 62 69 60 56 55 53 50 50 59 61 58 58 45 35 37 33 31 30 32 33 34 35 36 37 35 33 33 31 29 28 27 25 23 22 22 22 21 21 20 18 17 15 14
51 53 57 50 45 40 42 41 41 42 45 48 54 39 36 34 33 31 30 31 32 33 34 35 35 35 34 35 36 34 32 30 29 27 26 26 25 23 22 21 20 18 16 16
38 43 41 45 36 35 39 35 36 40 51 41 40 32 32 34 34 32 31 30 32 33 34 34 34 34 35 37 38 38 36 33 31 30 31 32 33 34 34 33 30 28 28 28
34 38 34 33 32 32 32 31 32 40 34 41 28 28 23 28 31 26 26 30 30 31 32 32 32 33 34 36 39 40 40 40 42 43 44 44 40 35 30 28 27 27 26 26
33 34 34 35 28 31 33 29 28 29 32 33 30 27 23 20 22 25 25 29 29 28 30 31 32 33 36 38 42 47 51 53 52 46 39 37 35 31 30 27 25 23 23 25
35 38 38 35 33 31 26 23 23 24 23 24 32 19 21 21 23 25 26 28 28 29 31 34 34 39 47 49 52 55 54 51 46 39 38 36 31 31 28 26 24 23 27 29
34 37 41 44 37 35 17 20 20 23 20 22 22 21 21 22 22 24 25 26 27 27 29 32 37 40 43 43 45 47 46 44 40 37 36 33 31 30 27 25 26 29 31 31
35 39 42 48 49 30 19 20 19 21 16 17 18 16 17 20 23 21 21 23 23 26 29 32 35 37 38 40 40 42 44 42 39 37 34 31 32 28 26 29 31 32 32 32
37 40 43 47 44 35 15 16 17 18 16 12 15 16 17 20 26 17 18 20 21 25 29 31 33 34 35 36 38 38 39 40 38 36 33 34 29 27 31 33 32 32 31 30
40 42 47 49 50 34 18 17 18 14 10 12 14 15 16 20 17 17 20 21 23 26 27 28 30 32 33 34 36 36 38 39 38 35 35 32 29 33 34 33 33 32 30 28
33 40 44 47 51 40 18 19 16 12 14 14 15 16 17 17 18 20 20 21 23 24 25 27 30 32 34 36 37 38 38 37 34 34 34 30 34 35 34 35 33 30 28 27
27 24 30 31 28 19 20 19 18 18 19 19 19 19 20 21 21 22 23 24 25 26 27 28 29 31 33 35 36 36 36 35 32 36 34 35 36 37 36 35 32 29 28 27
21 21 23 22 15 17 18 19 20 21 21 22 23 23 22 23 23 22 25 27 28 29 30 31 31 32 33 35 36 35 34 30 35 37 37 37 38 39 38 34 30 29 28 27
22 22 22 22 16 17 17 20 20 21 22 22 23 24 24 23 22 23 25 27 28 31 33 34 33 34 35 36 36 34 31 33 39 40 39 38 40 41 38 33 31 30 29 32
28 23 26 21 17 19 18 20 22 22 23 23 23 24 25 26 25 25 27 28 30 31 33 33 34 36 36 36 35 34 31 39 44 42 40 39 42 42 38 34 32 31 31 34